Location: Middlebury
(44.0153°N, 73.1678°W)
Time: 11:46:06
(UTC-04:00)

QB50P2 - Pass Details

Date: 22 June 2024
Orbit: 561 x 578 km, 98.0° (Epoch: 18 July)

Event Time Altitude Azimuth Distance (km) Brightness Sun altitude
Rises 04:19:15 0° 4° (N) 2,768 ? -7.9°
Reaches altitude 10° 04:21:32 10° 355° (N) 1,865 ? -7.6°
Maximum altitude 04:25:10 33° 291° (WNW) 953 ? -7.2°
Drops below altitude 10° 04:28:47 10° 226° (SW) 1,849 ? -6.7°
Enters shadow 04:29:08 - 224° (SW) 1,987 ? -6.6°
